�������l�o���
Date,Time,MP-1(��Sv/h),MP-2(��Sv/h),MP-3(��Sv/h),MP-4(��Sv/h),MP-5(��Sv/h),MP-6(��Sv/h),MP-7(��Sv/h),����,����(m/s),���J
2022/04/21,00:00,0.154,0.140,0.223,0.217,0.221,0.123,0.078,��쐼,4.4,��
2022/04/21,00:10,0.154,0.140,0.223,0.215,0.219,0.122,0.078,��,4.9,��
2022/04/21,00:20,0.153,0.140,0.222,0.216,0.221,0.122,0.078,��쐼,4.3,��
2022/04/21,00:30,0.153,0.141,0.222,0.216,0.219,0.121,0.077,��쐼,3.3,��
2022/04/21,00:40,0.155,0.140,0.222,0.215,0.221,0.121,0.078,�쐼,3.8,��
2022/04/21,00:50,0.154,0.140,0.223,0.216,0.221,0.122,0.078,��쐼,3.8,��
2022/04/21,01:00,0.154,0.140,0.222,0.216,0.220,0.121,0.078,��쐼,3.9,��
2022/04/21,01:10,0.154,0.142,0.224,0.216,0.220,0.121,0.078,��쐼,5.0,��
2022/04/21,01:20,0.153,0.141,0.223,0.216,0.219,0.121,0.077,��쐼,5.0,��
2022/04/21,01:30,0.155,0.141,0.223,0.216,0.220,0.122,0.078,��쐼,4.2,��
2022/04/21,01:40,0.154,0.140,0.223,0.216,0.221,0.122,0.077,��쐼,3.9,��
2022/04/21,01:50,0.153,0.140,0.223,0.216,0.220,0.122,0.078,��쐼,4.5,��
2022/04/21,02:00,0.154,0.141,0.224,0.216,0.220,0.122,0.078,��쐼,6.4,��
2022/04/21,02:10,0.153,0.141,0.223,0.216,0.219,0.121,0.078,��,6.4,��
2022/04/21,02:20,0.154,0.140,0.224,0.216,0.218,0.121,0.077,��,6.6,��
2022/04/21,02:30,0.154,0.140,0.221,0.215,0.221,0.122,0.077,��,6.5,��
2022/04/21,02:40,0.154,0.140,0.223,0.216,0.219,0.122,0.077,��,7.3,��
2022/04/21,02:50,0.154,0.140,0.224,0.216,0.221,0.121,0.078,��,7.9,��
2022/04/21,03:00,0.154,0.140,0.223,0.216,0.220,0.122,0.078,��,6.9,��
2022/04/21,03:10,0.153,0.139,0.222,0.215,0.219,0.122,0.078,��쐼,6.9,��
2022/04/21,03:20,0.153,0.139,0.222,0.216,0.221,0.122,0.077,��쐼,6.1,��
2022/04/21,03:30,0.154,0.141,0.223,0.215,0.221,0.121,0.078,��,6.4,��
2022/04/21,03:40,0.154,0.140,0.223,0.215,0.219,0.120,0.077,��,5.5,��
2022/04/21,03:50,0.154,0.142,0.224,0.215,0.220,0.121,0.077,��,6.8,��
2022/04/21,04:00,0.153,0.139,0.223,0.214,0.220,0.122,0.077,��,5.4,��
2022/04/21,04:10,0.154,0.141,0.223,0.214,0.220,0.122,0.077,��,4.7,��
2022/04/21,04:20,0.154,0.141,0.223,0.215,0.220,0.122,0.078,��,4.8,��
2022/04/21,04:30,0.154,0.140,0.222,0.216,0.220,0.121,0.077,��,5.0,��
2022/04/21,04:40,0.154,0.140,0.221,0.215,0.221,0.121,0.077,��,4.3,��
2022/04/21,04:50,0.154,0.140,0.223,0.216,0.220,0.122,0.078,��,3.7,��
2022/04/21,05:00,0.153,0.140,0.223,0.216,0.219,0.122,0.077,��,4.2,��
2022/04/21,05:10,0.155,0.141,0.223,0.215,0.220,0.122,0.078,��,5.2,��
2022/04/21,05:20,0.154,0.140,0.222,0.216,0.219,0.121,0.077,��,5.9,��
2022/04/21,05:30,0.154,0.139,0.223,0.216,0.220,0.122,0.077,��쐼,7.3,��
2022/04/21,05:40,0.154,0.139,0.222,0.215,0.219,0.122,0.078,��쐼,7.5,��
2022/04/21,05:50,0.154,0.140,0.222,0.215,0.219,0.122,0.077,��쐼,6.0,��
2022/04/21,06:00,0.153,0.140,0.224,0.216,0.221,0.122,0.078,��쐼,4.5,��
2022/04/21,06:10,0.154,0.139,0.223,0.215,0.220,0.122,0.076,�쐼,4.1,��
2022/04/21,06:20,0.154,0.140,0.221,0.214,0.220,0.121,0.079,�쐼,4.2,��
2022/04/21,06:30,0.154,0.140,0.223,0.216,0.220,0.121,0.077,��쐼,4.3,��
2022/04/21,06:40,0.154,0.141,0.221,0.214,0.220,0.122,0.078,��쐼,4.7,��
2022/04/21,06:50,0.154,0.140,0.222,0.217,0.221,0.121,0.077,�쐼,3.6,��
2022/04/21,07:00,0.155,0.140,0.223,0.214,0.219,0.122,0.077,�쐼,3.3,��
2022/04/21,07:10,0.154,0.140,0.221,0.215,0.221,0.122,0.077,�쐼,3.6,��
2022/04/21,07:20,0.153,0.140,0.223,0.213,0.219,0.120,0.077,�쐼,3.5,��
2022/04/21,07:30,0.153,0.139,0.222,0.215,0.221,0.121,0.077,��쐼,2.4,��
2022/04/21,07:40,0.154,0.140,0.220,0.215,0.221,0.121,0.078,��쐼,2.1,��
2022/04/21,07:50,0.153,0.139,0.223,0.214,0.219,0.121,0.078,�쐼,2.0,��
2022/04/21,08:00,0.154,0.140,0.221,0.216,0.219,0.122,0.078,��쐼,2.3,��
2022/04/21,08:10,0.152,0.140,0.221,0.213,0.218,0.121,0.077,��,1.9,��
2022/04/21,08:20,0.154,0.139,0.223,0.215,0.220,0.121,0.078,��쓌,2.4,��
2022/04/21,08:30,0.154,0.140,0.221,0.215,0.218,0.121,0.077,��쓌,3.3,��
2022/04/21,08:40,0.153,0.139,0.222,0.212,0.221,0.122,0.077,��,2.7,��
2022/04/21,08:50,0.153,0.139,0.223,0.216,0.220,0.121,0.078,��쓌,5.5,��
2022/04/21,09:00,0.152,0.140,0.221,0.215,0.217,0.120,0.077,��쓌,6.3,��
2022/04/21,09:10,0.153,0.140,0.218,0.212,0.219,0.122,0.077,��쓌,6.6,��
2022/04/21,09:20,0.153,0.139,0.224,0.216,0.220,0.120,0.078,��쓌,6.9,��
2022/04/21,09:30,0.153,0.140,0.223,0.215,0.217,0.121,0.078,��쓌,6.8,��
2022/04/21,09:40,0.152,0.139,0.222,0.213,0.219,0.121,0.077,��쓌,7.5,��
2022/04/21,09:50,0.153,0.140,0.220,0.216,0.220,0.121,0.078,��쓌,8.2,��
2022/04/21,10:00,0.153,0.141,0.223,0.215,0.218,0.122,0.077,��쓌,9.5,��
2022/04/21,10:10,0.151,0.139,0.223,0.215,0.218,0.121,0.077,��쓌,9.5,��
2022/04/21,10:20,0.152,0.140,0.222,0.213,0.219,0.121,0.078,��쓌,9.5,��
2022/04/21,10:30,0.154,0.141,0.220,0.217,0.220,0.120,0.077,��쓌,9.8,��
2022/04/21,10:40,0.154,0.139,0.221,0.215,0.218,0.121,0.077,��쓌,8.4,��
2022/04/21,10:50,0.152,0.140,0.224,0.213,0.220,0.121,0.077,��쓌,8.8,��
2022/04/21,11:00,0.155,0.140,0.223,0.217,0.220,0.122,0.077,��쓌,10.9,��
2022/04/21,11:10,0.154,0.140,0.221,0.216,0.218,0.122,0.078,��쓌,9.3,��
2022/04/21,11:20,0.152,0.140,0.225,0.214,0.221,0.121,0.078,��쓌,9.5,��
2022/04/21,11:30,0.153,0.140,0.223,0.216,0.220,0.121,0.077,��쓌,9.8,��
2022/04/21,11:40,0.155,0.140,0.220,0.215,0.218,0.122,0.077,��,10.4,��
2022/04/21,11:50,0.152,0.141,0.223,0.214,0.221,0.121,0.077,��쓌,9.5,��
2022/04/21,12:00,0.153,0.140,0.225,0.216,0.220,0.121,0.078,��쓌,10.0,��
2022/04/21,12:10,0.154,0.140,0.223,0.216,0.218,0.121,0.077,��쓌,11.2,��
2022/04/21,12:20,0.153,0.141,0.221,0.215,0.222,0.122,0.078,��쓌,10.1,��
2022/04/21,12:30,0.153,0.140,0.224,0.216,0.220,0.121,0.078,��쓌,10.6,��
2022/04/21,12:40,0.154,0.141,0.225,0.215,0.219,0.121,0.077,��쓌,10.6,��
2022/04/21,12:50,0.153,0.140,0.221,0.215,0.220,0.121,0.077,��쓌,11.1,��
2022/04/21,13:00,0.152,0.140,0.224,0.216,0.222,0.122,0.078,��쓌,10.9,��
2022/04/21,13:10,0.153,0.141,0.225,0.214,0.219,0.121,0.077,��쓌,9.3,��
2022/04/21,13:20,0.154,0.140,0.221,0.216,0.221,0.122,0.078,��쓌,7.8,��
2022/04/21,13:30,0.153,0.140,0.223,0.215,0.221,0.121,0.077,��쓌,9.6,��
2022/04/21,13:40,0.155,0.141,0.224,0.214,0.219,0.122,0.077,��쓌,8.5,��
2022/04/21,13:50,0.154,0.139,0.223,0.217,0.220,0.122,0.078,��쓌,9.0,��
2022/04/21,14:00,0.153,0.142,0.223,0.215,0.221,0.121,0.077,�쓌,8.3,��
2022/04/21,14:10,0.154,0.141,0.225,0.216,0.217,0.122,0.077,��쓌,9.5,��
2022/04/21,14:20,0.153,0.140,0.222,0.217,0.222,0.121,0.077,��쓌,9.2,��
2022/04/21,14:30,0.154,0.141,0.225,0.215,0.219,0.121,0.078,��쓌,8.1,��
2022/04/21,14:40,0.155,0.141,0.223,0.217,0.218,0.122,0.078,��쓌,7.4,��
2022/04/21,14:50,0.154,0.141,0.222,0.215,0.221,0.122,0.076,��,9.0,��
2022/04/21,15:00,0.153,0.141,0.225,0.215,0.221,0.122,0.078,��쓌,8.5,��
2022/04/21,15:10,0.155,0.141,0.223,0.216,0.219,0.121,0.077,��쓌,8.1,��
2022/04/21,15:20,0.154,0.140,0.223,0.216,0.221,0.122,0.078,��쓌,8.4,��
2022/04/21,15:30,0.155,0.140,0.224,0.218,0.219,0.121,0.078,��쓌,8.9,��
2022/04/21,15:40,0.155,0.141,0.223,0.215,0.219,0.121,0.077,��,9.2,��
2022/04/21,15:50,0.153,0.140,0.224,0.217,0.222,0.122,0.078,��쓌,7.8,��
2022/04/21,16:00,0.155,0.141,0.223,0.217,0.219,0.121,0.078,��쓌,8.2,��
2022/04/21,16:10,0.153,0.141,0.224,0.217,0.220,0.121,0.079,��쓌,7.3,��
2022/04/21,16:20,0.152,0.141,0.224,0.217,0.221,0.122,0.078,��쓌,8.6,��
2022/04/21,16:30,0.154,0.140,0.223,0.216,0.220,0.121,0.078,��쓌,9.3,��
2022/04/21,16:40,0.153,0.141,0.224,0.217,0.222,0.123,0.077,��쓌,9.5,��
2022/04/21,16:50,0.155,0.140,0.224,0.216,0.220,0.121,0.078,��,9.0,��
2022/04/21,17:00,0.153,0.141,0.225,0.217,0.223,0.122,0.077,��쓌,9.3,��
2022/04/21,17:10,0.154,0.141,0.224,0.216,0.220,0.121,0.078,��,9.0,��
2022/04/21,17:20,0.153,0.141,0.225,0.217,0.221,0.122,0.078,��,7.6,��
2022/04/21,17:30,0.154,0.141,0.223,0.215,0.220,0.122,0.078,��,6.3,��
2022/04/21,17:40,0.153,0.141,0.225,0.216,0.223,0.123,0.078,��,5.8,��
2022/04/21,17:50,0.154,0.141,0.223,0.216,0.220,0.122,0.078,��쓌,7.7,��
2022/04/21,18:00,0.154,0.141,0.223,0.218,0.222,0.121,0.077,��쓌,8.9,��
2022/04/21,18:10,0.154,0.140,0.223,0.217,0.219,0.122,0.078,��,8.6,��
2022/04/21,18:20,0.155,0.142,0.225,0.217,0.220,0.122,0.077,��,7.6,��
2022/04/21,18:30,0.155,0.142,0.223,0.218,0.221,0.121,0.078,��,5.6,��
2022/04/21,18:40,0.155,0.141,0.224,0.216,0.222,0.122,0.078,��쐼,4.3,��
2022/04/21,18:50,0.154,0.142,0.224,0.216,0.219,0.122,0.078,��,4.3,��
2022/04/21,19:00,0.154,0.141,0.223,0.216,0.222,0.122,0.078,��쐼,4.1,��
2022/04/21,19:10,0.155,0.142,0.226,0.217,0.220,0.122,0.078,��,3.4,��
2022/04/21,19:20,0.154,0.141,0.222,0.216,0.220,0.122,0.077,��,5.3,��
2022/04/21,19:30,0.155,0.141,0.225,0.218,0.219,0.121,0.078,��,5.5,��
2022/04/21,19:40,0.155,0.140,0.223,0.215,0.221,0.122,0.078,��,7.7,��
2022/04/21,19:50,0.154,0.141,0.225,0.218,0.219,0.121,0.077,��,7.0,��
2022/04/21,20:00,0.154,0.142,0.223,0.216,0.222,0.122,0.078,��,6.8,��
2022/04/21,20:10,0.155,0.141,0.224,0.217,0.220,0.122,0.078,��,7.6,��
2022/04/21,20:20,0.155,0.142,0.223,0.216,0.221,0.121,0.078,��,7.0,��
2022/04/21,20:30,0.154,0.141,0.225,0.218,0.220,0.121,0.078,��,7.5,��
2022/04/21,20:40,0.154,0.142,0.223,0.216,0.222,0.121,0.078,��,6.5,��
2022/04/21,20:50,0.155,0.141,0.224,0.218,0.220,0.121,0.077,��,7.5,��
2022/04/21,21:00,0.154,0.141,0.223,0.216,0.222,0.122,0.078,��,6.6,��
2022/04/21,21:10,0.154,0.141,0.225,0.218,0.220,0.121,0.079,��,6.7,�L
2022/04/21,21:20,0.154,0.140,0.223,0.216,0.222,0.121,0.077,��,6.0,�L
2022/04/21,21:30,0.155,0.141,0.226,0.218,0.221,0.123,0.078,��,6.8,�L
2022/04/21,21:40,0.156,0.142,0.225,0.218,0.223,0.123,0.079,��,6.9,�L
2022/04/21,21:50,0.156,0.143,0.226,0.219,0.222,0.124,0.079,��,6.9,�L
2022/04/21,22:00,0.156,0.143,0.226,0.219,0.225,0.124,0.080,��,7.3,�L
2022/04/21,22:10,0.157,0.143,0.225,0.220,0.221,0.125,0.080,��,5.5,�L
2022/04/21,22:20,0.155,0.143,0.227,0.218,0.223,0.125,0.081,��,5.0,�L
2022/04/21,22:30,0.157,0.143,0.226,0.219,0.223,0.125,0.081,��쐼,4.6,�L
2022/04/21,22:40,0.156,0.144,0.227,0.220,0.223,0.125,0.081,��쐼,5.1,�L
2022/04/21,22:50,0.158,0.143,0.226,0.218,0.223,0.125,0.082,��쐼,4.4,�L
2022/04/21,23:00,0.157,0.145,0.225,0.219,0.223,0.126,0.082,��쐼,4.4,�L
2022/04/21,23:10,0.158,0.144,0.226,0.218,0.223,0.127,0.082,��쐼,4.1,�L
2022/04/21,23:20,0.158,0.145,0.225,0.219,0.223,0.126,0.083,��쐼,4.1,�L
2022/04/21,23:30,0.158,0.145,0.225,0.219,0.222,0.126,0.082,��쐼,3.6,�L
2022/04/21,23:40,0.159,0.145,0.225,0.219,0.222,0.127,0.082,��쐼,3.4,�L
2022/04/21,23:50,0.157,0.146,0.225,0.219,0.223,0.126,0.082,��쐼,4.0,�L
